TimeCDT,TemperatureF,Dew PointF,Humidity,Sea Level PressureIn,VisibilityMPH,Wind Direction,Wind SpeedMPH,Gust SpeedMPH,PrecipitationIn,Events,Conditions,WindDirDegrees,DateUTC
12:35 AM,66.2,62.6,88,30.02,3.0,Calm,Calm,-,N/A,,Partly Cloudy,0,2013-06-18 05:35:00
12:55 AM,64.4,62.6,94,30.03,3.0,NNW,4.6,-,N/A,,Partly Cloudy,330,2013-06-18 05:55:00
1:15 AM,64.4,62.6,94,30.03,6.0,NW,5.8,-,N/A,,Partly Cloudy,320,2013-06-18 06:15:00
1:35 AM,66.2,62.6,88,30.02,10.0,NNW,4.6,-,N/A,,Clear,340,2013-06-18 06:35:00
1:55 AM,64.4,62.6,94,30.01,9.0,North,4.6,-,N/A,,Clear,350,2013-06-18 06:55:00
2:15 AM,64.4,62.6,94,30.00,9.0,Calm,Calm,-,N/A,,Clear,0,2013-06-18 07:15:00
2:35 AM,64.4,60.8,88,30.00,5.0,North,6.9,-,N/A,,Clear,350,2013-06-18 07:35:00
2:55 AM,64.4,62.6,94,29.99,5.0,NNW,3.5,-,N/A,,Clear,330,2013-06-18 07:55:00
3:15 AM,62.6,60.8,94,29.99,4.0,North,5.8,-,N/A,,Clear,350,2013-06-18 08:15:00
3:35 AM,64.4,60.8,88,29.99,5.0,North,6.9,-,N/A,,Clear,350,2013-06-18 08:35:00
3:55 AM,64.4,60.8,88,29.98,6.0,North,4.6,-,N/A,,Clear,360,2013-06-18 08:55:00
4:16 AM,62.6,60.8,94,29.99,3.0,North,4.6,-,N/A,,Clear,350,2013-06-18 09:16:00
4:35 AM,64.4,60.8,88,29.99,5.0,North,5.8,-,N/A,,Clear,10,2013-06-18 09:35:00
4:55 AM,64.4,60.8,88,30.00,5.0,North,3.5,-,N/A,,Clear,360,2013-06-18 09:55:00
5:15 AM,64.4,60.8,88,30.01,5.0,North,3.5,-,N/A,,Clear,350,2013-06-18 10:15:00
5:35 AM,62.6,59.0,88,30.01,5.0,North,3.5,-,N/A,,Clear,10,2013-06-18 10:35:00
6:35 AM,66.2,62.6,88,30.02,0.5,NNE,6.9,-,N/A,,Overcast,20,2013-06-18 11:35:00
6:55 AM,66.2,64.4,94,30.02,2.5,NE,5.8,-,N/A,,Overcast,40,2013-06-18 11:55:00
7:15 AM,66.2,64.4,94,30.02,3.0,NNE,5.8,-,N/A,,Overcast,30,2013-06-18 12:15:00
7:35 AM,66.2,64.4,94,30.03,3.0,NE,3.5,-,N/A,,Overcast,40,2013-06-18 12:35:00
7:55 AM,66.2,64.4,94,30.04,3.0,NE,4.6,-,N/A,,Overcast,50,2013-06-18 12:55:00
8:15 AM,68.0,64.4,88,30.05,4.0,NE,4.6,-,N/A,,Overcast,50,2013-06-18 13:15:00
8:35 AM,68.0,64.4,88,30.05,5.0,NNE,3.5,-,N/A,,Overcast,20,2013-06-18 13:35:00
8:55 AM,69.8,66.2,88,30.06,8.0,North,3.5,-,N/A,,Overcast,10,2013-06-18 13:55:00
8:56 AM,69.8,66.2,88,30.06,8.0,NNE,3.5,-,N/A,,Overcast,20,2013-06-18 13:56:00
9:15 AM,69.8,66.2,88,30.06,10.0,North,3.5,-,N/A,,Mostly Cloudy,360,2013-06-18 14:15:00
9:55 AM,73.4,66.2,78,30.07,10.0,NE,5.8,-,N/A,,Clear,50,2013-06-18 14:55:00
10:15 AM,73.4,66.2,78,30.07,10.0,East,3.5,-,N/A,,Clear,90,2013-06-18 15:15:00
10:35 AM,75.2,66.2,73,30.07,10.0,ENE,4.6,-,N/A,,Clear,70,2013-06-18 15:35:00
10:55 AM,75.2,66.2,73,30.07,10.0,ESE,4.6,-,N/A,,Clear,110,2013-06-18 15:55:00
11:15 AM,77.0,64.4,65,30.07,10.0,ESE,3.5,-,N/A,,Clear,120,2013-06-18 16:15:00
11:35 AM,77.0,64.4,65,30.07,10.0,East,4.6,-,N/A,,Clear,90,2013-06-18 16:35:00
12:15 PM,78.8,64.4,61,30.07,10.0,ESE,4.6,-,N/A,,Clear,110,2013-06-18 17:15:00
12:35 PM,78.8,64.4,61,30.07,10.0,NNE,5.8,-,N/A,,Clear,30,2013-06-18 17:35:00
12:55 PM,80.6,64.4,58,30.07,10.0,East,6.9,-,N/A,,Clear,100,2013-06-18 17:55:00
1:15 PM,80.6,64.4,58,30.07,10.0,NE,6.9,-,N/A,,Clear,50,2013-06-18 18:15:00
1:35 PM,80.6,64.4,58,30.06,10.0,Calm,Calm,-,N/A,,Clear,0,2013-06-18 18:35:00
1:55 PM,80.6,64.4,58,30.06,10.0,NE,3.5,-,N/A,,Clear,50,2013-06-18 18:55:00
2:15 PM,80.6,64.4,58,30.05,10.0,East,6.9,-,N/A,,Clear,90,2013-06-18 19:15:00
2:36 PM,80.6,62.6,54,30.04,10.0,NE,6.9,-,N/A,,Clear,50,2013-06-18 19:36:00
2:55 PM,80.6,64.4,58,30.04,10.0,ENE,3.5,-,N/A,,Clear,60,2013-06-18 19:55:00
3:35 PM,82.4,62.6,51,30.03,10.0,East,4.6,-,N/A,,Clear,80,2013-06-18 20:35:00
3:55 PM,82.4,62.6,51,30.02,10.0,East,4.6,-,N/A,,Clear,90,2013-06-18 20:55:00
4:15 PM,82.4,62.6,51,30.02,10.0,East,9.2,-,N/A,,Clear,100,2013-06-18 21:15:00
4:35 PM,82.4,62.6,51,30.01,10.0,SE,10.4,-,N/A,,Clear,130,2013-06-18 21:35:00
4:55 PM,82.4,60.8,48,30.01,10.0,East,6.9,-,N/A,,Clear,100,2013-06-18 21:55:00
5:15 PM,82.4,60.8,48,30.00,10.0,ESE,6.9,-,N/A,,Clear,110,2013-06-18 22:15:00
5:35 PM,82.4,62.6,51,30.00,10.0,SE,5.8,-,N/A,,Clear,130,2013-06-18 22:35:00
5:55 PM,82.4,62.6,51,30.00,10.0,East,3.5,-,N/A,,Clear,100,2013-06-18 22:55:00
6:16 PM,82.4,60.8,48,29.99,10.0,East,6.9,-,N/A,,Clear,100,2013-06-18 23:16:00
6:35 PM,82.4,60.8,48,30.00,10.0,East,3.5,-,N/A,,Clear,100,2013-06-18 23:35:00
6:55 PM,82.4,62.6,51,30.00,10.0,East,3.5,-,N/A,,Clear,100,2013-06-18 23:55:00
7:15 PM,80.6,62.6,54,30.01,10.0,East,3.5,-,N/A,,Clear,100,2013-06-19 00:15:00
7:55 PM,80.6,62.6,54,30.02,10.0,Calm,Calm,-,N/A,,Clear,0,2013-06-19 00:55:00
8:15 PM,78.8,62.6,57,30.02,10.0,Calm,Calm,-,N/A,,Clear,0,2013-06-19 01:15:00
8:36 PM,77.0,62.6,61,30.02,10.0,NE,3.5,-,N/A,,Clear,50,2013-06-19 01:36:00
8:55 PM,75.2,62.6,65,30.03,10.0,Calm,Calm,-,N/A,,Clear,0,2013-06-19 01:55:00
9:15 PM,73.4,62.6,69,30.04,10.0,Calm,Calm,-,N/A,,Clear,0,2013-06-19 02:15:00
9:35 PM,73.4,62.6,69,30.04,10.0,East,4.6,-,N/A,,Clear,90,2013-06-19 02:35:00
9:55 PM,73.4,60.8,65,30.04,10.0,East,3.5,-,N/A,,Clear,90,2013-06-19 02:55:00
10:15 PM,71.6,60.8,69,30.04,10.0,ESE,4.6,-,N/A,,Clear,110,2013-06-19 03:15:00
10:35 PM,69.8,60.8,73,30.03,10.0,SE,4.6,-,N/A,,Clear,130,2013-06-19 03:35:00
10:55 PM,68.0,60.8,78,30.04,10.0,Calm,Calm,-,N/A,,Clear,0,2013-06-19 03:55:00
11:35 PM,68.0,60.8,78,30.04,10.0,Calm,Calm,-,N/A,,Clear,0,2013-06-19 04:35:00